This demonstration page uses our WeatherBlox Daily Observations layout. Learn more.

Left ArrowRight Arrow

Hourly Observations for March 28, 2016

Temp ( °F °C ) Dew Point ( °F °C ) Humidity (%) Winds ( mph kmh ) Pressure ( in mb ) Visibility ( mi km ) Precip ( " mm )
12:15 am 00:15 Clear 41 5 21 -6 45 45 SSW 9 15 30.03 1017 10 16 0.00 0.00
12:35 am 00:35 Clear 41 5 21 -6 45 45 SSW 9 15 30.03 1017 10 16 0.00 0.00
12:55 am 00:55 Clear 39 4 21 -6 48 48 SSW 10 17 30.06 1018 10 16 0.00 0.00
1:15 am 01:15 Clear 39 4 21 -6 48 48 SSW 9 15 30.06 1018 10 16 0.00 0.00
1:35 am 01:35 Clear 37 3 19 -7 48 48 SSW 9 15 30.06 1018 10 16 0.00 0.00
1:55 am 01:55 Clear 37 3 19 -7 48 48 SSW 10 17 30.06 1018 10 16 0.00 0.00
2:15 am 02:15 Clear 37 3 19 -7 48 48 SSW 10 17 30.06 1018 10 16 0.00 0.00
2:35 am 02:35 Clear 37 3 19 -7 48 48 SSW 10 17 30.03 1017 10 16 0.00 0.00
2:55 am 02:55 Clear 36 2 19 -7 52 52 SSW 10 17 30.03 1017 10 16 0.00 0.00
3:15 am 03:15 Clear 34 1 21 -6 60 60 SSW 10 17 30.03 1017 10 16 0.00 0.00
3:35 am 03:35 Clear 36 2 21 -6 56 56 SSW 10 17 30.03 1017 10 16 0.00 0.00
3:55 am 03:55 Clear 36 2 19 -7 52 52 SW 9 15 30.03 1017 10 16 0.00 0.00
4:15 am 04:15 Clear 37 3 19 -7 48 48 SW 12 19 30.03 1017 10 16 0.00 0.00
4:35 am 04:35 Clear 37 3 19 -7 48 48 SW 12 19 30.03 1017 10 16 0.00 0.00
4:55 am 04:55 Clear 37 3 19 -7 48 48 SW 12 19 30.03 1017 10 16 0.00 0.00
5:15 am 05:15 Clear 36 2 19 -7 52 52 SSW 10 17 30.03 1017 10 16 0.00 0.00
5:35 am 05:35 Clear 36 2 19 -7 52 52 SW 10 17 30.03 1017 10 16 0.00 0.00
5:55 am 05:55 Clear 34 1 19 -7 56 56 SSW 8 13 30.03 1017 10 16 0.00 0.00
6:15 am 06:15 Clear 32 0 19 -7 60 60 SSW 8 13 30.06 1018 10 16 0.00 0.00
6:35 am 06:35 Clear 32 0 19 -7 60 60 SSW 10 17 30.06 1018 10 16 0.00 0.00
6:55 am 06:55 Clear 32 0 19 -7 60 60 SSW 13 20 30.06 1018 10 16 0.00 0.00
7:15 am 07:15 Clear 32 0 19 -7 60 60 SSW 9 15 30.06 1018 10 16 0.00 0.00
7:35 am 07:35 Sunny 34 1 21 -6 60 60 SW 10 17 30.03 1017 10 16 0.00 0.00
7:55 am 07:55 Sunny 34 1 21 -6 60 60 SSW 10 17 30.09 1019 10 16 0.00 0.00
8:15 am 08:15 Sunny 36 2 21 -6 56 56 SSW 10 17 30.06 1018 10 16 0.00 0.00
8:35 am 08:35 Sunny 37 3 23 -5 56 56 SW 12 19 30.03 1017 10 16 0.00 0.00
8:55 am 08:55 Sunny 39 4 25 -4 56 56 SSW 10 17 30.03 1017 10 16 0.00 0.00
9:15 am 09:15 Sunny 45 7 25 -4 46 46 SW 13 20 30.03 1017 10 16 0.00 0.00
9:35 am 09:35 Sunny 46 8 27 -3 46 46 SW 15 24 30.03 1017 10 16 0.00 0.00
9:55 am 09:55 Sunny 48 9 27 -3 43 43 SW 15 24 29.97 1015 10 16 0.00 0.00
10:15 am 10:15 Sunny 52 11 27 -3 38 38 SW 16 26 29.97 1015 10 16 0.00 0.00
10:35 am 10:35 Sunny 55 13 27 -3 33 33 SSW 17 28 29.94 1014 10 16 0.00 0.00
10:55 am 10:55 Sunny 55 13 27 -3 33 33 SSW 20 31 29.94 1014 10 16 0.00 0.00
11:15 am 11:15 Sunny 57 14 27 -3 31 31 SSW 18 30 29.94 1014 10 16 0.00 0.00
11:35 am 11:35 Sunny 59 15 27 -3 29 29 SSW 16 26 29.94 1014 10 16 0.00 0.00
11:55 am 11:55 Sunny 61 16 28 -2 29 29 S 15 24 29.91 1013 10 16 0.00 0.00
12:15 pm 12:15 Sunny 63 17 27 -3 25 25 SSW 17 28 29.91 1013 10 16 0.00 0.00
12:35 pm 12:35 Sunny 63 17 27 -3 25 25 S 23 37 29.91 1013 10 16 0.00 0.00
12:55 pm 12:55 Sunny 64 18 27 -3 24 24 SSW 21 33 29.88 1012 10 16 0.00 0.00
1:15 pm 13:15 Sunny 64 18 27 -3 24 24 S 23 37 29.88 1012 10 16 0.00 0.00
1:35 pm 13:35 Sunny 64 18 28 -2 26 26 S 21 33 29.88 1012 10 16 0.00 0.00
1:55 pm 13:55 Sunny 64 18 28 -2 26 26 S 29 46 29.88 1012 10 16 0.00 0.00
2:15 pm 14:15 Sunny 66 19 28 -2 24 24 S 25 41 29.85 1011 10 16 0.00 0.00
2:35 pm 14:35 Sunny 66 19 30 -1 26 26 S 26 43 29.83 1010 10 16 0.00 0.00
2:55 pm 14:55 Sunny 66 19 30 -1 26 26 S 25 41 29.83 1010 10 16 0.00 0.00
3:15 pm 15:15 Sunny 66 19 30 -1 26 26 S 24 39 29.83 1010 10 16 0.00 0.00
3:35 pm 15:35 Sunny 66 19 30 -1 26 26 SSE 25 41 29.80 1009 10 16 0.00 0.00
3:55 pm 15:55 Sunny 66 19 30 -1 26 26 S 24 39 29.80 1009 10 16 0.00 0.00
4:15 pm 16:15 Sunny 68 20 32 0 26 26 SSE 25 41 29.80 1009 10 16 0.00 0.00
4:35 pm 16:35 Sunny 66 19 32 0 28 28 S 24 39 29.80 1009 10 16 0.00 0.00
4:55 pm 16:55 Sunny 66 19 32 0 28 28 S 24 39 29.80 1009 10 16 0.00 0.00
5:15 pm 17:15 Sunny 66 19 32 0 28 28 S 23 37 29.80 1009 10 16 0.00 0.00
5:35 pm 17:35 Sunny 66 19 32 0 28 28 SSE 22 35 29.80 1009 10 16 0.00 0.00
5:55 pm 17:55 Sunny 66 19 32 0 28 28 S 23 37 29.80 1009 10 16 0.00 0.00
6:15 pm 18:15 Sunny 66 19 34 1 30 30 SSE 23 37 29.80 1009 10 16 0.00 0.00
6:35 pm 18:35 Sunny 64 18 32 0 30 30 SSE 21 33 29.83 1010 10 16 0.00 0.00
6:55 pm 18:55 Sunny 63 17 32 0 32 32 SSE 20 31 29.83 1010 10 16 0.00 0.00
7:15 pm 19:15 Sunny 63 17 30 -1 30 30 SSE 16 26 29.83 1010 10 16 0.00 0.00
7:35 pm 19:35 Sunny 61 16 30 -1 31 31 SSE 20 31 29.83 1010 10 16 0.00 0.00
7:55 pm 19:55 Sunny 57 14 30 -1 36 36 SSE 16 26 29.85 1011 10 16 0.00 0.00
8:15 pm 20:15 Clear 55 13 28 -2 36 36 SE 15 24 29.88 1012 10 16 0.00 0.00
8:35 pm 20:35 Clear 54 12 27 -3 35 35 SE 16 26 29.88 1012 10 16 0.00 0.00
8:55 pm 20:55 Clear 54 12 27 -3 35 35 SE 16 26 29.88 1012 10 16 0.00 0.00
9:15 pm 21:15 Clear 52 11 27 -3 38 38 SE 15 24 29.88 1012 10 16 0.00 0.00
9:35 pm 21:35 Clear 50 10 27 -3 40 40 SE 14 22 29.91 1013 10 16 0.00 0.00
9:55 pm 21:55 Clear 50 10 27 -3 40 40 SE 15 24 29.91 1013 10 16 0.00 0.00
10:15 pm 22:15 Clear 50 10 27 -3 40 40 SE 17 28 29.91 1013 10 16 0.00 0.00
10:35 pm 22:35 Clear 48 9 27 -3 43 43 SE 15 24 29.94 1014 10 16 0.00 0.00
10:55 pm 22:55 Clear 50 10 27 -3 40 40 SE 17 28 29.94 1014 10 16 0.00 0.00
11:15 pm 23:15 Clear 48 9 27 -3 43 43 SE 16 26 29.91 1013 10 16 0.00 0.00
11:35 pm 23:35 Clear 48 9 27 -3 43 43 SE 16 26 29.91 1013 10 16 0.00 0.00
11:55 pm 23:55 Clear 46 8 27 -3 46 46 SE 15 24 29.94 1014 10 16 0.00 0.00

Powered by AerisWeather